Zurück zum Katalog

STARLINK-37783

AktivKommunikationSSO
NORAD 69438·PAYLOAD·🇺🇸 United States

Gestartet Jun 7, 2026 von Vandenberg Space Force Base

Loading…

Nächste Überflüge (nächste 24 Stunden)

TLE

AktuellSource: CelesTrak SupGP

Epoche: Sep 15, 2026, 03:55 UTC

1 69438C 26126U   26258.16368056 -.00026195  00000+0 -81298-3 0  2588
2 69438  97.2849 119.4794 0002566  94.3775  24.8859 15.33456975    15

Verfolge STARLINK-37783 in Echtzeit mit AllMySat

Download on the App Store